15min,AgWx,beryljct,423,05SEP2018:00:00:00,59.4,13.01,57.9,54.8,58.3,61.0,54.7,58,69,48,1.000,43.2,45.0,41.0,5.875,4.6,152,8.3,5.9,0.00017,0.00026,69.7,70.8,17,0,0,57.1,17.32,0.00,0.00
15min,AgWx,beryljct,423,05SEP2018:00:15:00,58.3,13.02,53.9,53.6,53.9,54.8,53.2,69,71,67,0.962,44.1,44.6,43.5,4.319,5.5,145,8.1,6.4,0.00011,0.00016,69.5,71.1,18,0,0,53.1,17.32,0.00,0.00
15min,AgWx,beryljct,423,05SEP2018:00:30:00,57.1,13.01,54.2,54.2,54.0,55.0,53.2,66,69,63,0.966,43.1,43.7,42.6,0.921,3.6,163,12,5.1,0.00004,0.00008,69.3,71.1,18,0,0,52.4,17.32,0.00,0.00
15min,AgWx,beryljct,423,05SEP2018:00:45:00,56.3,13.01,55.4,59.1,54.6,59.1,53.2,66,71,52,0.886,43.4,44.3,41.4,4.845,2.1,191,40,5.0,-0.00007,-0.00007,69.1,71.0,18,0,0,52.4,17.32,0.00,0.00
15min,AgWx,beryljct,423,05SEP2018:01:00:00,56.2,13,59.9,58.2,59.6,63.0,54.8,52,68,43,0.950,42.0,44.4,40.3,0.022,1.4,312,61,6.0,-0.00010,-0.00011,68.9,70.9,18,0,0,56.3,17.32,0.00,0.00
15min,AgWx,beryljct,423,05SEP2018:01:15:00,56.2,13,55.3,51.4,56.0,59.8,51.4,64,77,51,0.999,43.6,45.2,41.4,3.902,3.6,87,12,5.0,0.00006,0.00011,68.7,70.4,17,0,0,55.0,17.32,0.00,0.00
15min,AgWx,beryljct,423,05SEP2018:01:30:00,55.3,12.99,50.6,51.2,50.5,51.3,49.5,79,83,75,0.970,44.3,44.6,43.6,3.091,2.2,117,20,4.0,-0.00011,-0.00013,68.5,69.9,17,0,0,49.7,17.32,0.00,0.00
15min,AgWx,beryljct,423,05SEP2018:01:45:00,54.7,12.98,51.8,52.6,51.4,52.6,50.9,78,81,71,0.962,44.6,45.4,43.6,5.678,4.2,174,5.5,6.1,-0.00001,0.00001,68.3,69.8,17,0,0,51.1,17.32,0.00,0.00
15min,AgWx,beryljct,423,05SEP2018:02:00:00,54.7,12.98,55.3,59.1,54.3,59.1,52.7,67,71,55,0.934,43.6,44.6,42.8,3.705,4.2,184,3.8,5.7,0.00006,0.00011,68.1,70.6,18,0,0,54.1,17.32,0.00,0.00
15min,AgWx,beryljct,423,05SEP2018:02:15:00,55.8,12.96,59.1,56.3,59.2,62.2,56.3,57,69,46,1.074,43.7,46.5,41.2,0,1.7,168,5.9,4.2,-0.00007,-0.00007,67.9,69.7,17,0,0,59.0,17.32,0.00,0.00
15min,AgWx,beryljct,423,05SEP2018:02:30:00,56.5,12.97,55.7,55.8,55.6,56.5,54.6,72,77,67,1.116,46.7,47.9,45.1,3.31,1.4,172,8.8,3.8,-0.00014,-0.00018,67.7,70.5,18,0,0,55.6,17.32,0.00,0.00
15min,AgWx,beryljct,423,05SEP2018:02:45:00,57.3,12.96,61.0,62.3,60.0,62.6,55.9,58,74,52,1.009,45.3,47.9,44.3,4.779,5.3,208,13,6.6,0.00022,0.00031,67.5,69.9,17,0,0,59.4,17.32,0.00,0.00
15min,AgWx,beryljct,423,05SEP2018:03:00:00,58.9,12.95,63.3,61.1,63.3,64.8,61.1,51,59,46,1.052,44.9,47.2,43.2,2.587,3.5,212,15,5.0,0.00015,0.00025,67.4,70.3,18,0,0,62.8,17.32,0.00,0.00
15min,AgWx,beryljct,423,05SEP2018:03:15:00,59.5,12.94,58.4,58.4,58.7,61.0,56.9,63,70,57,1.044,46.0,48.0,44.6,0,3.3,81,25,6.8,0.00005,0.00010,67.2,69.3,17,0,0,58.9,17.32,0.00,0.00
15min,AgWx,beryljct,423,05SEP2018:03:30:00,59.2,12.93,56.6,54.8,56.9,58.6,54.8,66,71,62,1.020,45.6,46.5,44.8,4.034,2.2,345,19,4.4,-0.00006,-0.00006,67.1,68.8,17,0,0,56.4,17.32,0.00,0.00
15min,AgWx,beryljct,423,05SEP2018:03:45:00,58.3,12.94,55.1,54.5,55.0,55.5,54.2,65,70,61,0.965,43.5,45.0,42.3,0.066,2.1,348,58,4.8,-0.00006,-0.00006,67.0,69.2,17,0,0,54.1,17.32,0.00,0.00
15min,AgWx,beryljct,423,05SEP2018:04:00:00,57.3,12.91,54.1,53.9,54.0,54.8,53.2,71,76,66,1.007,44.8,45.9,43.5,0.482,0.4,81,6.8,1.2,-0.00023,-0.00035,66.8,69.5,17,0,0,52.2,17.32,0.00,0.00
15min,AgWx,beryljct,423,05SEP2018:04:15:00,56.2,12.91,53.7,51.9,53.7,54.6,51.9,74,79,67,1.040,45.7,46.6,44.0,2.631,0.9,102,2.2,3.8,-0.00019,-0.00026,66.7,69.0,17,0,0,52.1,17.32,0.00,0.00
15min,AgWx,beryljct,423,05SEP2018:04:30:00,55.6,12.91,53.7,51.8,53.5,55.3,51.5,70,80,61,1.045,43.9,45.7,41.9,3.201,1.6,98,5.4,4.6,-0.00012,-0.00015,66.6,68.9,17,0,0,52.7,17.32,0.00,0.00
15min,AgWx,beryljct,423,05SEP2018:04:45:00,55.0,12.91,51.9,51.4,51.7,52.1,51.4,78,81,74,0.962,45.1,46.3,43.6,3.727,3.4,52,16,4.4,-0.00004,-0.00003,66.5,68.8,17,0,0,51.9,17.32,0.00,0.00
15min,AgWx,beryljct,423,05SEP2018:05:00:00,54.4,12.89,51.0,51.1,50.9,51.4,50.4,75,78,73,0.940,43.2,43.8,42.7,0,1.7,43,5.5,4.0,-0.00012,-0.00015,66.4,68.8,17,0,0,50.8,17.32,0.00,0.00
15min,AgWx,beryljct,423,05SEP2018:05:15:00,53.9,12.89,51.6,51.1,51.4,51.9,51.0,74,81,68,1.033,43.4,45.5,41.4,1.469,0.6,47,0.2,1.6,-0.00021,-0.00030,66.2,69.1,17,0,0,50.3,17.32,0.00,0.00
15min,AgWx,beryljct,423,05SEP2018:05:30:00,53.5,12.89,52.2,52.2,51.8,52.8,50.9,71,81,62,0.897,42.8,45.6,40.2,2.017,1.5,68,46,4.4,0.00011,0.00020,66.1,68.2,17,0,0,50.5,17.32,0.00,0.00
15min,AgWx,beryljct,423,05SEP2018:05:45:00,53.2,12.88,51.1,51.4,51.0,52.3,50.7,76,78,68,0.936,43.6,44.2,42.1,1.228,1.7,186,12,3.6,0.00011,0.00019,66.0,68.5,17,0,0,50.0,17.32,0.00,0.00
15min,AgWx,beryljct,423,05SEP2018:06:00:00,52.7,12.88,50.6,49.7,50.6,52.0,49.7,77,81,70,0.982,43.6,44.7,42.5,2.631,1.0,123,35,2.7,0.00007,0.00011,65.8,68.0,17,0,0,49.4,17.32,0.00,0.00
15min,AgWx,beryljct,423,05SEP2018:06:15:00,52.2,12.86,50.0,49.2,49.8,51.0,49.1,81,85,76,0.988,44.2,45.1,43.7,3.529,2.6,98,14,5.1,0.00014,0.00023,65.7,69.2,18,3,0,49.0,17.32,0.00,0.00
15min,AgWx,beryljct,423,05SEP2018:06:30:00,51.8,12.89,49.8,50.3,49.5,50.7,48.9,82,83,79,1.015,44.2,45.0,44.0,4.056,4.0,145,37,5.3,0.00022,0.00034,65.5,68.7,17,10,0,49.3,17.32,0.00,0.00
15min,AgWx,beryljct,423,05SEP2018:06:45:00,52.0,12.91,51.9,51.7,51.5,52.5,50.3,77,83,73,1.010,44.5,45.4,43.8,3.968,4.1,180,32,5.9,0.00039,0.00056,65.4,68.2,17,31,0,52.5,17.32,0.00,0.00
15min,AgWx,beryljct,423,05SEP2018:07:00:00,52.9,12.94,54.9,55.8,54.2,55.8,51.8,69,77,65,0.983,44.1,44.8,43.7,2.368,4.2,174,7.6,6.5,0.00066,0.00093,65.3,68.5,17,61,0,56.3,17.32,0.00,0.00
15min,AgWx,beryljct,423,05SEP2018:07:15:00,54.0,12.98,56.3,55.2,56.2,56.9,55.2,66,77,62,1.150,45.1,48.3,43.7,0.438,0.6,184,0.4,2.5,0.00056,0.00064,65.1,68.9,17,79,0,59.8,17.32,0.00,0.00
15min,AgWx,beryljct,423,05SEP2018:07:30:00,55.1,13.01,56.0,56.5,55.8,56.5,54.9,79,83,76,1.285,49.2,51.4,48.3,0,0.1,182,0.0,0.5,0.00066,0.00071,65.0,68.8,17,104,0,62.4,17.32,0.00,0.00
15min,AgWx,beryljct,423,05SEP2018:07:45:00,56.4,13,57.4,57.7,57.1,57.7,56.5,79,84,71,1.168,50.8,52.4,48.4,0.592,1.8,62,36,4.2,0.00081,0.00093,64.9,68.7,18,115,0,62.9,17.32,0.00,0.00
15min,AgWx,beryljct,423,05SEP2018:08:00:00,57.6,13.03,57.8,57.7,57.7,57.9,57.5,70,73,67,1.135,48.1,49.3,46.7,2.214,1.7,327,23,3.0,0.00092,0.00108,64.8,68.6,17,125,0,63.6,17.32,0.00,0.00
15min,AgWx,beryljct,423,05SEP2018:08:15:00,58.7,13.04,58.5,58.9,58.2,58.9,57.7,69,75,66,1.146,48.0,49.9,47.0,2.061,2.8,321,7.2,4.3,0.00100,0.00123,64.8,68.5,18,126,0,64.0,17.32,0.00,0.00
15min,AgWx,beryljct,423,05SEP2018:08:30:00,59.7,13.07,59.9,59.9,59.6,60.5,58.9,66,74,56,1.230,48.3,51.2,44.7,3.113,1.3,342,25,3.8,0.00102,0.00118,64.8,68.5,18,139,0,66.1,17.32,0.00,0.00
15min,AgWx,beryljct,423,05SEP2018:08:45:00,60.8,13.14,60.3,60.3,60.1,60.5,59.9,67,71,64,1.214,49.3,50.5,47.8,3.595,3.7,57,5.9,5.3,0.00133,0.00164,64.8,68.4,18,169,0,66.9,17.31,0.00,0.00
15min,AgWx,beryljct,423,05SEP2018:09:00:00,61.7,13.23,60.9,61.5,60.7,61.5,60.2,66,69,64,1.223,49.4,50.7,48.2,2.236,3.7,51,6.5,4.6,0.00158,0.00192,64.8,68.3,18,213,0,69.2,17.31,0.00,0.00
15min,AgWx,beryljct,423,05SEP2018:09:15:00,62.9,13.38,62.5,63.2,62.2,63.3,61.4,61,68,52,1.200,48.4,50.9,45.0,1.14,2.4,38,5.4,3.4,0.00171,0.00201,64.9,68.2,17,236,0,72.4,17.31,0.00,0.00
15min,AgWx,beryljct,423,05SEP2018:09:30:00,64.4,13.7,63.8,64.1,63.7,64.1,63.2,60,65,57,1.274,49.7,51.6,47.8,2.148,2.4,62,14,4.7,0.00215,0.00248,65.0,68.2,17,310,0,77.3,17.31,0.00,0.00
15min,AgWx,beryljct,423,05SEP2018:09:45:00,66.8,14.13,66.2,67.0,65.9,67.0,64.0,56,62,49,1.169,49.5,52.0,46.4,2.872,2.7,60,12,5.3,0.00334,0.00380,65.1,68.1,17,505,0,87.2,17.31,0.00,0.00
15min,AgWx,beryljct,423,05SEP2018:10:00:00,69.3,14.13,68.0,68.7,67.8,68.7,66.9,49,57,43,1.030,48.0,52.7,45.3,0,1.4,33,38,4.1,0.00299,0.00335,65.2,68.1,17,438,0,89.5,17.30,0.00,0.00
15min,AgWx,beryljct,423,05SEP2018:10:15:00,71.7,14.02,69.5,70.2,69.4,70.4,68.7,44,49,41,1.121,46.6,49.1,44.7,1.622,1.4,291,3.5,3.0,0.00349,0.00389,65.4,68.0,17,515,0,95.0,17.30,0.00,0.00
15min,AgWx,beryljct,423,05SEP2018:10:30:00,74.5,13.99,71.4,71.8,71.3,72.0,70.0,40,46,35,0.972,45.4,48.4,42.5,1.973,2.2,335,22,4.2,0.00429,0.00487,65.7,68.0,17,613,0,101.0,17.30,0.00,0.00
15min,AgWx,beryljct,423,05SEP2018:10:45:00,75.6,14,71.4,71.5,71.4,72.0,71.1,42,49,37,1.133,47.4,51.0,43.9,2.083,1.8,327,8.7,3.2,0.00258,0.00299,66.0,68.0,17,332,0,88.7,17.29,0.00,0.00
15min,AgWx,beryljct,423,05SEP2018:11:00:00,76.3,14.01,72.2,72.2,72.2,72.7,71.5,42,51,36,1.182,47.6,53.4,44.3,2.587,1.7,291,27,2.7,0.00338,0.00383,66.3,67.9,17,467,0,92.8,17.29,0.00,0.00
15min,AgWx,beryljct,423,05SEP2018:11:15:00,77.1,14.01,73.8,75.4,73.6,75.4,72.2,37,47,31,1.122,45.9,50.7,41.0,1.206,1.2,258,2.5,2.3,0.00453,0.00501,66.6,67.9,17,660,0,100.8,17.29,0.00,0.00
15min,AgWx,beryljct,423,05SEP2018:11:30:00,79.1,13.93,75.5,75.8,75.7,76.5,75.2,31,37,28,0.900,42.8,47.7,40.6,1.008,1.8,310,40,3.1,0.00601,0.00671,67.0,67.9,17,870,0,111.6,17.29,0.00,0.00
15min,AgWx,beryljct,423,05SEP2018:11:45:00,81.6,13.9,77.5,77.1,77.6,78.6,75.9,29,36,27,0.972,43.3,48.8,41.0,3.661,1.6,227,41,4.5,0.00602,0.00670,67.3,67.9,17,863,0,114.6,17.28,0.00,0.00
15min,AgWx,beryljct,423,05SEP2018:12:00:00,83.3,13.9,77.1,77.2,77.4,77.9,76.7,31,40,27,0.890,44.7,51.2,41.2,3.047,1.5,87,84,5.0,0.00610,0.00675,67.8,68.0,17,878,0,111.4,17.28,0.00,0.00
15min,AgWx,beryljct,423,05SEP2018:12:15:00,84.5,13.47,76.9,76.8,77.2,77.9,76.8,33,43,28,1.337,46.0,52.9,41.5,4.143,2.6,59,28,5.1,0.00637,0.00720,68.3,68.0,17,903,0,108.8,17.28,0.00,0.00
15min,AgWx,beryljct,423,05SEP2018:12:30:00,83.9,13.5,76.0,76.2,76.2,77.1,75.4,34,42,27,0.852,45.9,52.2,39.8,0,3.2,81,82,6.5,0.00279,0.00347,69.0,68.1,17,293,0,90.2,17.28,0.00,0.00
15min,AgWx,beryljct,423,05SEP2018:12:45:00,81.6,13.51,75.0,74.0,75.3,76.4,74.0,33,45,27,1.285,43.7,51.3,39.2,2.696,2.6,311,13,6.6,0.00171,0.00224,69.6,68.1,17,153,0,80.3,17.28,0.00,0.00
15min,AgWx,beryljct,423,05SEP2018:13:00:00,79.4,13.58,73.6,75.2,73.5,75.2,72.1,42,50,35,1.058,49.0,53.2,45.1,7.717,3.4,243,70,9.7,0.00188,0.00244,70.2,68.2,17,178,0,79.8,17.29,0.00,0.00
15min,AgWx,beryljct,423,05SEP2018:13:15:00,78.1,13.57,75.1,75.4,75.1,75.5,74.5,35,38,32,0.999,45.5,47.7,43.6,9.1,9.8,203,14,16.0,0.00317,0.00465,70.7,68.3,17,212,0,79.2,17.29,0.00,0.00
15min,AgWx,beryljct,423,05SEP2018:13:30:00,77.1,13.6,73.2,72.6,73.5,75.5,72.0,38,43,32,1.095,46.5,48.7,43.3,6.905,9.2,173,18,13.2,0.00300,0.00433,71.0,68.5,17,224,0,77.5,17.29,0.00,0.00
15min,AgWx,beryljct,423,05SEP2018:13:45:00,76.1,13.61,72.4,71.5,72.5,74.1,71.3,44,50,37,1.295,49.1,52.0,45.4,11.42,7.1,157,13,11.4,0.00273,0.00373,71.3,68.6,17,251,0,77.9,17.29,0.00,0.00
15min,AgWx,beryljct,423,05SEP2018:14:00:00,75.3,13.6,72.1,73.3,72.0,73.3,71.2,48,51,42,1.214,51.0,52.6,48.7,11.27,9.0,149,9.2,14.1,0.00300,0.00412,71.4,68.8,17,294,0,77.3,17.30,0.00,0.00
15min,AgWx,beryljct,423,05SEP2018:14:15:00,75.4,13.63,73.3,72.0,73.4,74.8,71.9,43,47,35,1.223,49.7,52.3,45.3,6.971,8.5,143,9.8,14.4,0.00323,0.00441,71.6,68.9,17,321,0,79.8,17.30,0.00,0.00
15min,AgWx,beryljct,423,05SEP2018:14:30:00,75.4,13.59,74.1,74.3,73.9,75.7,72.0,40,46,33,1.060,48.3,50.9,44.4,10.35,6.1,218,50,14.4,0.00235,0.00328,71.7,69.1,17,192,0,78.4,17.30,0.00,0.00
15min,AgWx,beryljct,423,05SEP2018:14:45:00,75.4,13.62,73.8,73.5,73.8,74.6,73.0,39,45,36,1.139,47.6,50.3,45.4,8.29,9.8,267,13,15.0,0.00289,0.00425,71.7,69.2,17,207,0,77.9,17.30,0.00,0.00
15min,AgWx,beryljct,423,05SEP2018:15:00:00,75.6,13.61,73.9,74.6,73.8,74.7,73.0,41,45,37,1.092,48.8,51.2,46.8,10.52,9.9,270,13,13.4,0.00347,0.00483,71.8,69.4,17,352,0,79.2,17.30,0.00,0.00
15min,AgWx,beryljct,423,05SEP2018:15:15:00,76.3,13.57,74.9,75.6,74.9,75.9,74.1,40,45,37,1.208,49.2,51.7,46.7,6.927,8.2,275,11,12.7,0.00360,0.00484,71.9,69.5,17,415,0,81.7,17.30,0.00,0.00
15min,AgWx,beryljct,423,05SEP2018:15:30:00,77.9,13.59,76.7,77.7,76.6,77.7,75.7,37,43,32,1.101,48.7,51.9,44.9,7.388,8.3,295,14,12.5,0.00494,0.00635,71.9,69.6,17,630,0,86.4,17.30,0.00,0.00
15min,AgWx,beryljct,423,05SEP2018:15:45:00,80.0,13.49,77.8,78.5,77.8,78.5,77.4,36,41,31,1.186,48.6,52.8,44.8,8.59,7.6,261,30,12.0,0.00479,0.00615,72.0,69.7,17,600,0,88.0,17.30,0.00,0.00
15min,AgWx,beryljct,423,05SEP2018:16:00:00,82.0,13.41,79.0,78.9,79.1,80.1,78.4,31,39,26,0.903,46.1,52.1,41.4,4.604,5.8,233,32,12.9,0.00494,0.00616,72.1,69.8,17,634,0,91.4,17.29,0.00,0.00
15min,AgWx,beryljct,423,05SEP2018:16:15:00,82.8,13.45,77.6,77.4,77.9,78.9,76.7,33,39,27,0.895,46.4,50.3,41.7,1.425,6.7,259,16,13.4,0.00358,0.00481,72.3,69.9,17,426,0,87.3,17.29,0.00,0.00
15min,AgWx,beryljct,423,05SEP2018:16:30:00,82.2,13.45,77.3,78.2,77.3,78.2,76.5,33,41,27,0.908,46.0,51.3,40.7,4.691,5.0,262,36,9.7,0.00274,0.00368,72.5,70.0,17,351,0,86.0,17.29,0.00,0.00
15min,AgWx,beryljct,423,05SEP2018:16:45:00,81.8,13.54,77.6,77.4,77.7,78.4,76.9,32,39,27,1.063,45.1,50.3,41.0,1.008,2.5,251,70,6.5,0.00217,0.00273,72.8,70.1,17,333,0,87.4,17.29,0.00,0.00
15min,AgWx,beryljct,423,05SEP2018:17:00:00,80.6,13.33,71.4,68.4,72.4,78.0,68.4,45,51,32,1.218,49.5,55.7,45.3,12.74,9.2,69,44,16.8,0.00178,0.00290,73.0,70.2,17,153,0,78.4,17.30,0.00,0.00
15min,AgWx,beryljct,423,05SEP2018:17:15:00,76.4,13.28,66.3,65.5,66.6,68.3,65.5,56,60,51,1.281,50.3,51.4,49.2,13.7,12.1,72,9.1,16.2,0.00142,0.00242,73.2,70.3,17,60,0,66.7,17.30,0.01,0.00
15min,AgWx,beryljct,423,05SEP2018:17:30:00,72.2,13.24,64.7,64.8,64.7,65.5,64.0,62,67,60,1.275,51.6,53.1,50.7,10.68,11.5,42,21,16.4,0.00112,0.00191,73.4,70.4,17,112,0,64.1,17.31,0.00,0.00
15min,AgWx,beryljct,423,05SEP2018:17:45:00,70.1,13.21,64.3,63.9,64.3,65.0,63.4,65,71,60,1.368,52.2,53.9,50.8,8.7,9.5,59,17,13.9,0.00076,0.00139,73.5,70.5,18,79,0,66.4,17.31,0.00,0.00
15min,AgWx,beryljct,423,05SEP2018:18:00:00,68.9,13.17,64.5,64.3,64.4,64.7,63.8,66,68,64,1.348,52.7,53.3,51.9,6.489,7.8,42,12,11.6,0.00032,0.00043,73.5,70.6,18,33,0,65.6,17.31,0.00,0.00
15min,AgWx,beryljct,423,05SEP2018:18:15:00,67.9,13.18,63.5,63.3,63.6,64.3,63.1,68,69,65,1.324,52.8,53.5,52.1,6.489,5.8,85,13,8.7,0.00023,0.00033,73.4,70.7,18,42,0,64.7,17.31,0.00,0.00
15min,AgWx,beryljct,423,05SEP2018:18:30:00,67.0,13.16,62.8,62.0,62.9,63.4,62.0,68,70,65,1.336,52.1,52.5,51.3,2.653,2.9,89,15,5.3,0.00004,0.00008,73.3,70.8,18,29,0,63.3,17.31,0.00,0.00
15min,AgWx,beryljct,423,05SEP2018:18:45:00,66.1,13.14,61.6,60.3,61.7,62.7,60.3,73,79,69,1.411,52.8,53.9,52.3,3.157,2.2,74,65,3.7,-0.00008,-0.00009,73.2,70.9,18,17,0,61.5,17.32,0.00,0.00
15min,AgWx,beryljct,423,05SEP2018:19:00:00,65.2,13.12,61.9,61.9,61.6,63.6,60.2,72,79,63,1.319,52.4,53.9,50.6,1.6,3.1,270,57,4.7,-0.00004,-0.00002,73.0,71.0,18,7,0,61.1,17.32,0.00,0.00
15min,AgWx,beryljct,423,05SEP2018:19:15:00,64.8,13.11,63.8,63.4,63.5,64.2,62.0,64,69,61,1.280,51.0,52.0,50.2,1.096,0.9,157,1.5,1.6,-0.00024,-0.00035,72.9,71.0,17,1,0,61.5,17.32,0.00,0.00
15min,AgWx,beryljct,423,05SEP2018:19:30:00,64.3,13.1,61.4,61.7,61.5,63.3,60.7,73,79,65,1.310,52.8,54.2,51.1,2.214,2.1,165,6.0,3.1,-0.00014,-0.00017,72.7,71.1,18,0,0,60.4,17.32,0.00,0.00
15min,AgWx,beryljct,423,05SEP2018:19:45:00,63.8,13.07,61.8,61.9,61.6,62.9,60.5,70,76,63,1.271,51.6,53.1,50.3,4.121,1.2,187,26,4.3,-0.00021,-0.00029,72.6,70.7,17,0,0,60.0,17.32,0.00,0.00
15min,AgWx,beryljct,423,05SEP2018:20:00:00,63.6,13.09,63.2,62.4,63.0,64.5,61.9,62,67,55,1.212,49.9,51.6,47.9,4.516,3.4,219,11,4.6,0.00002,0.00007,72.3,71.2,18,0,0,62.1,17.32,0.00,0.00
15min,AgWx,beryljct,423,05SEP2018:20:15:00,63.4,13.08,62.9,63.5,62.7,63.6,62.0,62,64,60,1.271,49.4,51.1,48.3,9.19,6.3,186,11,10.0,0.00021,0.00031,72.1,70.8,17,0,0,61.7,17.32,0.00,0.00
15min,AgWx,beryljct,423,05SEP2018:20:30:00,63.4,13.08,63.9,65.9,63.5,65.9,62.2,60,65,48,1.050,49.1,51.1,45.7,5.612,5.5,288,64,10.6,0.00020,0.00030,71.9,71.2,18,0,0,61.7,17.32,0.00,0.00
15min,AgWx,beryljct,423,05SEP2018:20:45:00,63.5,13.07,63.4,59.7,63.9,67.2,59.7,54,71,45,1.248,46.9,50.5,45.0,8.51,3.1,307,67,10.6,0.00004,0.00010,71.7,70.8,17,0,0,61.4,17.32,0.00,0.00
15min,AgWx,beryljct,423,05SEP2018:21:00:00,62.4,13.06,58.3,58.4,58.3,59.7,57.9,75,77,72,1.232,50.6,51.1,49.9,0.965,4.2,51,11,7.8,-0.00002,0.00000,71.5,70.8,17,0,0,56.8,17.32,0.00,0.00
15min,AgWx,beryljct,423,05SEP2018:21:15:00,60.9,13.06,57.9,58.7,57.7,58.7,55.8,76,82,73,1.240,50.2,50.7,49.9,0,1.0,89,51,2.7,-0.00024,-0.00034,71.3,70.8,17,0,0,54.7,17.32,0.00,0.00
15min,AgWx,beryljct,423,05SEP2018:21:30:00,59.7,13.06,57.1,56.0,57.3,58.9,56.0,77,81,72,1.219,50.3,50.9,49.7,0,1.2,77,19,4.4,-0.00022,-0.00031,71.1,70.8,17,0,0,54.3,17.32,0.00,0.00
15min,AgWx,beryljct,423,05SEP2018:21:45:00,58.6,13.04,55.8,54.5,55.8,56.9,54.5,82,84,79,1.216,50.3,50.9,49.5,1.403,1.2,114,56,3.4,-0.00022,-0.00031,70.9,71.2,18,0,0,52.6,17.32,0.00,0.00
15min,AgWx,beryljct,423,05SEP2018:22:00:00,57.6,13.04,55.6,55.0,55.4,56.2,54.2,83,87,80,1.188,50.2,51.0,49.1,3.266,2.4,178,6.3,3.4,-0.00015,-0.00019,70.6,71.2,18,0,0,52.6,17.32,0.00,0.00
15min,AgWx,beryljct,423,05SEP2018:22:15:00,56.9,13.03,54.3,54.0,54.3,55.0,53.8,81,83,79,1.147,48.6,49.4,47.9,2.631,3.7,199,5.5,4.7,-0.00008,-0.00009,70.4,71.1,17,0,0,52.3,17.32,0.00,0.00
15min,AgWx,beryljct,423,05SEP2018:22:30:00,56.3,13.03,55.1,54.4,54.9,55.8,54.0,78,81,75,1.094,48.1,48.7,46.9,4.976,2.5,180,27,5.8,-0.00013,-0.00016,70.2,71.1,17,0,0,52.4,17.32,0.00,0.00
15min,AgWx,beryljct,423,05SEP2018:22:45:00,55.9,13.02,56.0,57.0,55.5,57.0,53.0,77,83,72,1.135,48.3,48.8,47.0,4.034,4.4,169,12,5.2,-0.00002,-0.00001,69.9,69.8,17,0,0,53.5,17.32,0.00,0.00
15min,AgWx,beryljct,423,05SEP2018:23:00:00,55.8,13,56.2,56.2,56.2,57.1,55.4,72,74,71,1.122,47.4,48.0,46.9,3.551,3.5,179,2.0,4.2,-0.00004,-0.00003,69.7,71.0,17,0,0,54.2,17.32,0.00,0.00
15min,AgWx,beryljct,423,05SEP2018:23:15:00,55.5,13,53.4,52.1,53.7,56.7,51.5,78,85,71,1.105,46.9,47.7,46.4,2.214,2.5,172,5.0,5.6,-0.00012,-0.00015,69.4,71.0,17,0,0,52.2,17.32,0.00,0.00
15min,AgWx,beryljct,423,05SEP2018:23:30:00,54.9,13,52.4,50.7,52.4,53.5,50.7,82,84,81,1.053,47.1,47.8,45.9,3.069,3.5,212,92,5.4,-0.00010,-0.00011,69.2,70.9,17,0,0,50.8,17.33,0.00,0.00
15min,AgWx,bigpiney,439,05SEP2018:00:00:00,46.4,12.76,39.6,41.5,42.4,44.0,41.5,50,54,45,0.452,25.1,26.3,24.3,1.929,3.6,326,34,7.2,0.00004,0.00008,50.9,50.4,38,0,0,0.0,.,0.00,0.00
15min,AgWx,bigpiney,439,05SEP2018:00:15:00,46.0,12.76,44.5,44.9,45.1,47.8,40.6,45,53,40,0.469,24.8,25.6,24.4,5.897,3.6,247,29,5.9,0.00007,0.00012,50.9,50.4,38,0,0,0.0,.,0.00,0.00
15min,AgWx,bigpiney,439,05SEP2018:00:30:00,46.0,12.76,40.0,41.1,42.3,44.8,40.8,55,60,47,0.524,27.1,28.7,25.7,4.165,4.6,225,11,6.1,0.00008,0.00013,50.8,50.4,38,0,0,0.0,.,0.00,0.00
15min,AgWx,bigpiney,439,05SEP2018:00:45:00,45.5,12.74,41.9,41.2,40.2,41.3,38.6,61,65,59,0.526,28.0,28.5,27.3,5.985,5.6,222,8.5,6.8,0.00008,0.00012,50.7,50.4,38,0,0,0.0,.,0.00,0.00
15min,AgWx,bigpiney,439,05SEP2018:01:00:00,45.0,12.74,38.1,40.0,41.3,42.1,40.0,60,62,58,0.517,28.3,28.7,27.9,6.094,5.5,223,8.9,7.1,0.00008,0.00013,50.7,50.4,38,0,0,0.0,.,0.00,0.00
15min,AgWx,bigpiney,439,05SEP2018:01:15:00,44.5,12.72,43.1,42.4,39.1,42.4,37.5,65,69,58,0.536,28.5,29.0,27.7,6.577,6.4,222,9.5,8.3,0.00008,0.00011,50.6,50.4,38,0,0,0.0,.,0.00,0.00
15min,AgWx,bigpiney,439,05SEP2018:01:30:00,44.5,12.71,43.3,43.3,44.1,44.9,42.5,56,58,55,0.554,29.7,30.0,28.8,5.963,6.6,238,7.4,9.1,0.00015,0.00021,50.5,50.4,38,0,0,0.0,.,0.00,0.00
15min,AgWx,bigpiney,439,05SEP2018:01:45:00,44.7,12.7,42.6,42.1,42.2,43.3,41.8,60,62,58,0.562,29.2,29.9,29.0,5.853,6.6,230,4.6,7.6,0.00012,0.00017,50.5,50.4,38,0,0,0.0,.,0.00,0.00
15min,AgWx,bigpiney,439,05SEP2018:02:00:00,44.9,12.7,43.1,43.2,42.9,43.4,42.1,62,63,61,0.591,30.9,31.4,29.9,5.524,5.8,225,7.6,6.6,0.00008,0.00013,50.4,50.4,38,0,0,0.0,.,0.00,0.00
15min,AgWx,bigpiney,439,05SEP2018:02:15:00,44.9,12.69,42.3,42.5,42.5,43.3,41.8,64,65,62,0.596,31.1,31.5,30.7,4.691,5.8,224,6.0,6.8,0.00008,0.00012,50.3,50.4,38,0,0,0.0,.,0.00,0.00
15min,AgWx,bigpiney,439,05SEP2018:02:30:00,44.8,12.68,47.6,46.6,43.9,46.6,41.1,63,67,58,0.630,32.0,32.8,30.2,9.05,6.9,236,18,10.4,0.00012,0.00017,50.2,50.3,38,0,0,0.0,.,0.00,0.00
15min,AgWx,bigpiney,439,05SEP2018:02:45:00,45.2,12.67,42.5,42.5,45.2,46.7,42.5,61,66,58,0.607,32.5,33.1,31.8,6.949,7.1,228,13,8.9,0.00015,0.00020,50.2,50.4,38,0,0,0.0,.,0.00,0.00
15min,AgWx,bigpiney,439,05SEP2018:03:00:00,45.4,12.65,41.5,41.1,42.3,43.1,40.5,67,70,65,0.603,31.9,32.3,30.9,5.919,6.3,221,7.5,8.2,0.00007,0.00011,50.1,50.3,38,0,0,0.0,.,0.00,0.00
15min,AgWx,bigpiney,439,05SEP2018:03:15:00,45.1,12.65,42.8,43.1,42.3,43.5,41.0,67,69,65,0.623,32.2,32.6,31.6,2.105,4.6,237,24,6.4,0.00002,0.00004,50.0,50.3,38,0,0,0.0,.,0.00,0.00
15min,AgWx,bigpiney,439,05SEP2018:03:30:00,44.6,12.64,38.4,38.4,39.3,43.1,37.2,70,75,64,0.567,30.3,32.5,28.6,1.907,2.1,52,31,3.9,-0.00012,-0.00014,49.9,50.3,38,0,0,0.0,.,0.00,0.00
15min,AgWx,bigpiney,439,05SEP2018:03:45:00,43.8,12.63,38.4,37.9,38.4,39.5,37.9,71,73,69,0.555,30.0,30.6,29.2,1.118,1.8,81,16,4.0,-0.00014,-0.00017,49.9,50.3,38,0,0,0.0,.,0.00,0.00
15min,AgWx,bigpiney,439,05SEP2018:04:00:00,43.0,12.61,37.9,38.2,38.5,39.4,37.6,71,73,68,0.556,29.9,30.9,28.6,0,1.5,104,32,3.3,-0.00016,-0.00021,49.8,50.3,38,0,0,0.0,.,0.00,0.00
15min,AgWx,bigpiney,439,05SEP2018:04:15:00,42.3,12.59,35.4,35.5,37.3,38.2,35.5,75,78,71,0.540,29.9,30.9,29.0,0,0.2,187,17,1.4,-0.00026,-0.00041,49.7,50.3,38,0,0,0.0,.,0.00,0.00
15min,AgWx,bigpiney,439,05SEP2018:04:30:00,41.4,12.6,41.1,39.9,37.0,39.9,34.2,75,82,68,0.571,29.8,31.0,28.6,1.71,1.2,61,24,2.5,-0.00018,-0.00025,49.7,50.3,38,0,0,0.0,.,0.00,0.00
15min,AgWx,bigpiney,439,05SEP2018:04:45:00,40.8,12.59,39.5,38.8,39.1,40.2,38.5,68,70,66,0.533,29.6,30.3,28.6,2.455,0.9,358,52,2.7,-0.00020,-0.00029,49.6,50.2,38,0,0,0.0,.,0.00,0.00
15min,AgWx,bigpiney,439,05SEP2018:05:00:00,40.5,12.56,40.5,39.6,39.3,40.2,38.5,64,67,61,0.516,28.2,29.0,27.0,2.148,2.0,313,20,3.9,-0.00011,-0.00013,49.5,50.2,38,0,0,0.0,.,0.00,0.00
15min,AgWx,bigpiney,439,05SEP2018:05:15:00,40.2,12.55,39.8,39.4,39.8,40.2,39.4,62,63,61,0.506,27.7,28.1,27.2,2.105,2.2,299,10,2.8,-0.00009,-0.00010,49.5,50.2,38,0,0,0.0,.,0.00,0.00
15min,AgWx,bigpiney,439,05SEP2018:05:30:00,39.9,12.54,36.5,37.1,39.3,39.7,37.1,61,65,60,0.477,27.1,27.5,25.7,1.776,1.6,269,10,2.7,-0.00014,-0.00017,49.4,50.2,38,0,0,0.0,.,0.00,0.00
15min,AgWx,bigpiney,439,05SEP2018:05:45:00,39.3,12.53,37.3,36.7,37.2,38.0,36.6,66,67,64,0.493,26.8,27.3,25.8,2.17,1.9,246,12,3.2,-0.00012,-0.00014,49.4,50.2,38,1,0,0.0,.,0.00,0.00
15min,AgWx,bigpiney,439,05SEP2018:06:00:00,38.8,12.53,38.0,37.2,37.7,38.5,36.8,65,68,63,0.510,27.1,27.6,26.5,3.376,2.2,211,15,3.8,-0.00008,-0.00010,49.3,50.2,38,7,0,0.0,.,0.00,0.00
15min,AgWx,bigpiney,439,05SEP2018:06:15:00,38.4,12.55,35.2,35.4,36.6,38.5,33.5,68,76,63,0.473,27.0,28.4,25.2,2.455,2.4,302,48,3.9,-0.00022,-0.00014,49.3,50.1,38,24,0,0.0,.,0.00,0.00
15min,AgWx,bigpiney,439,05SEP2018:06:30:00,38.2,12.58,38.8,37.8,36.3,38.4,34.5,66,68,63,0.503,26.2,27.8,24.8,2.017,1.6,312,27,2.9,-0.00008,-0.00002,49.2,50.1,38,64,0,0.0,.,0.00,0.00
15min,AgWx,bigpiney,439,05SEP2018:06:45:00,38.4,12.59,36.1,35.8,36.4,38.1,35.5,71,76,65,0.541,27.8,29.0,26.8,3.113,2.7,242,22,3.9,0.00014,0.00025,49.1,50.1,38,104,0,0.0,.,0.00,0.00
15min,AgWx,bigpiney,439,05SEP2018:07:00:00,39.0,12.73,41.0,40.1,37.6,40.1,35.8,78,79,75,0.635,31.3,33.0,29.1,3.858,3.4,214,4.0,4.1,0.00034,0.00046,49.0,50.1,38,149,0,0.0,.,0.00,0.00
15min,AgWx,bigpiney,439,05SEP2018:07:15:00,40.3,13,44.5,44.1,42.4,44.1,40.2,74,77,71,0.701,34.8,36.0,33.0,3.069,2.7,207,7.4,3.7,0.00060,0.00074,49.0,50.0,38,195,0,0.0,.,0.00,0.00
15min,AgWx,bigpiney,439,05SEP2018:07:30:00,42.1,13.37,47.1,46.7,45.6,46.8,44.1,69,73,66,0.719,36.1,37.4,34.7,1.206,1.3,153,47,3.1,0.00086,0.00098,48.9,50.1,38,243,0,0.0,.,0.00,0.00
15min,AgWx,bigpiney,439,05SEP2018:07:45:00,44.5,13.6,47.6,47.8,47.2,47.8,46.7,66,69,63,0.725,36.3,37.8,35.3,2.894,1.8,84,21,3.2,0.00118,0.00135,48.8,50.0,38,292,0,0.0,.,0.00,0.00
15min,AgWx,bigpiney,439,05SEP2018:08:00:00,47.3,13.81,49.9,49.7,48.8,49.8,47.8,64,67,62,0.780,37.3,39.1,36.0,2.916,2.0,101,18,4.1,0.00150,0.00171,48.8,50.0,38,342,0,0.0,.,0.00,0.00
15min,AgWx,bigpiney,439,05SEP2018:08:15:00,50.1,14.54,51.0,51.4,50.5,51.4,49.7,62,65,61,0.787,38.1,39.3,37.5,2.565,2.4,89,20,4.1,0.00184,0.00211,48.7,50.0,38,392,11,0.0,.,0.00,0.00